sat.trackr.live / text

‹ back to catalog

STARLINK-37585

NORAD 69421 · 2026-126B

PAYLOAD ACTIVE UNKNOWN

§ Identity

Operator
Country
US
Launch date
2026-06-07
Launch site
AFWTR
Launch vehicle
Mass (kg)
RCS (m²)

Purposes: comms

External: N2YO · Heavens-Above · Gunter

§ Orbital elements

Epoch: 2026-09-19T01:53:59.481024Z

Period
93.91 min
Inclination
97.2848°
Eccentricity
0.0001722
Mean motion
15.33447236 rev/d
Perigee alt
464.4 km
Apogee alt
466.7 km
Semi-major
6,843.7 km
B*
3.6660e-4
RAAN
123.2882°
Arg perigee
88.6620°
Mean anomaly
271.4820°
Rev number
1,730

§ Raw data

STARLINK-375851 69421U 26126B   26262.07916066  .00011780  00000+0  36660-3 0  99922 69421  97.2848 123.2882 0001722  88.6620 271.4820 15.33447236 17303

JSON: /api/v1/satellites/69421 · /tle

For live sub-satellite position, see the globe view (requires WebGL).

§ Visibility from observer

Set your observer location to see the next 7 days of passes ≥ 10°. The values pass through the URL so the page stays shareable.

No JS? Fill the form by hand. The geolocation button needs JavaScript.